Location: Newark
(40.3820°N, 3.6624°W)
Time: 21:08:41
(UTC+00:00)

N. Korean satellite - Pass Details

Date: 26 November 2019
Orbit: 455 x 506 km, 97.2° (Epoch: 12 December)

Event Time Altitude Azimuth Distance (km) Brightness Sun altitude
Rises 18:26:37 0° 212° (SSW) 2,577 10.9 -18.0°
Reaches altitude 10° 18:29:48 10° 243° (WSW) 1,709 10.5 -18.6°
Maximum altitude 18:31:22 12° 269° (W) 1,573 10.3 -18.8°
Drops below altitude 10° 18:32:58 10° 294° (WNW) 1,721 10.1 -19.1°
Sets 18:36:12 0° 325° (NW) 2,617 10.6 -19.8°
